Date String (YYYY-MM-DD hh:mm:ss) UTC,Instrument flags,Ambient pressure (hPa),Sample flow (lpm),Bypass flow (lpm),Sample temperature (°C),Ambient temperature (°C),ASC tube jacket temperature (°C),LED temperature (°C),Box temperature (°C),Sample RH (%),Span deviation,Mass concentration (μg/m³),Mass concentration (μg/m³),Mass concentration (μg/m³)
DateTimeUTC,F1_M11,P_M11,Q1_M11,Q2_M11,T1_M11,T2_M11,T3_M11,T4_M11,T5_M11,U1_M11,ZSPAN_M11,X0_M11,X2_M11,X1_M11
2022-12-25 15:00:00,,0826.1,4.97,0.00,22.0,20.8,00.0,30.8,23.8,13.6,0000.0,0004.15,0002.06,0001.87
2022-12-25 15:01:00,,0826.1,4.99,0.00,22.0,20.9,00.0,30.8,23.8,13.6,0000.0,0003.13,0002.12,0001.91
2022-12-25 15:02:00,,0826.0,5.02,0.00,22.0,20.9,00.0,30.8,23.8,13.6,0000.0,0003.07,0002.11,0001.89
2022-12-25 15:03:00,,0826.1,5.03,0.00,22.0,20.8,00.0,30.8,23.8,13.6,0000.0,0002.84,0001.92,0001.72
2022-12-25 15:04:00,,0826.2,4.99,0.00,22.0,20.8,00.0,30.8,23.8,13.6,0000.0,0002.58,0001.73,0001.56
2022-12-25 15:05:00,,0826.2,4.97,0.00,22.0,20.8,00.0,30.8,23.8,13.6,0000.0,0002.69,0001.62,0001.43
2022-12-25 15:06:00,,0826.1,4.97,0.00,22.0,20.8,00.0,30.8,23.8,13.6,0000.0,0002.67,0001.48,0001.29
2022-12-25 15:07:00,,0826.2,5.03,0.00,22.0,20.8,00.0,30.8,23.8,13.6,0000.0,0002.61,0001.38,0001.17
2022-12-25 15:08:00,,0826.2,5.03,0.00,22.0,20.7,00.0,30.8,23.8,13.6,0000.0,0002.51,0001.27,0001.06
2022-12-25 15:09:00,,0826.2,4.99,0.00,22.0,20.7,00.0,30.8,23.8,13.6,0000.0,0002.32,0001.12,0000.94
2022-12-25 15:10:00,,0826.0,4.98,0.00,22.0,20.7,00.0,30.8,23.8,13.6,0000.0,0002.13,0000.98,0000.83
2022-12-25 15:11:00,,0826.0,4.98,0.00,22.0,20.7,00.0,30.8,23.8,13.6,0000.0,0002.08,0000.93,0000.78
2022-12-25 15:12:00,,0826.0,5.03,0.00,22.0,20.7,00.0,30.8,23.8,13.6,0000.0,0002.01,0000.86,0000.70
2022-12-25 15:13:00,,0826.1,5.03,0.00,22.0,20.7,00.0,30.8,23.8,13.6,0000.0,0002.13,0000.83,0000.65
2022-12-25 15:14:00,,0826.1,4.98,0.00,22.0,20.7,00.0,30.8,23.8,13.6,0000.0,0002.12,0000.81,0000.63
2022-12-25 15:15:00,,0826.0,4.97,0.00,22.0,20.7,00.0,30.8,23.8,13.6,0000.0,0002.12,0000.80,0000.63
2022-12-25 15:16:00,,0826.0,4.99,0.00,22.0,20.6,00.0,30.8,23.8,13.5,0000.0,0001.97,0000.75,0000.59
2022-12-25 15:17:00,,0826.1,5.02,0.00,22.0,20.6,00.0,30.8,23.8,13.5,0000.0,0001.13,0000.72,0000.57
2022-12-25 15:18:00,,0826.2,5.01,0.00,22.0,20.6,00.0,30.8,23.8,13.6,0000.0,0001.08,0000.69,0000.55
2022-12-25 15:19:00,,0826.2,4.98,0.00,22.0,20.6,00.0,30.8,23.8,13.7,0000.0,0001.01,0000.66,0000.54
2022-12-25 15:20:00,,0826.1,4.98,0.00,22.0,20.6,00.0,30.8,23.8,13.6,0000.0,0000.99,0000.64,0000.52
2022-12-25 15:21:00,,0826.1,4.98,0.00,22.0,20.6,00.0,30.8,23.8,13.7,0000.0,0001.05,0000.62,0000.50
2022-12-25 15:22:00,,0826.0,5.02,0.00,22.0,20.6,00.0,30.8,23.8,13.7,0000.0,0000.98,0000.57,0000.46
2022-12-25 15:23:00,,0826.0,5.02,0.00,22.0,20.6,00.0,30.8,23.8,13.6,0000.0,0000.91,0000.52,0000.43
2022-12-25 15:24:00,,0826.1,4.98,0.00,22.0,20.6,00.0,30.8,23.8,13.6,0000.0,0000.91,0000.49,0000.42
2022-12-25 15:25:00,,0826.2,4.97,0.00,22.0,20.6,00.0,30.8,23.7,13.5,0000.0,0000.90,0000.48,0000.40
2022-12-25 15:26:00,,0826.2,4.99,0.00,22.0,20.5,00.0,30.8,23.7,13.6,0000.0,0000.88,0000.47,0000.39
2022-12-25 15:27:00,,0826.1,5.03,0.00,21.9,20.5,00.0,30.8,23.7,13.7,0000.0,0000.90,0000.46,0000.37
2022-12-25 15:28:00,,0826.2,5.02,0.00,21.9,20.5,00.0,30.8,23.7,13.8,0000.0,0000.88,0000.44,0000.35
2022-12-25 15:29:00,,0826.2,4.98,0.00,21.9,20.5,00.0,30.8,23.7,13.6,0000.0,0000.85,0000.42,0000.33
2022-12-25 15:30:00,,0826.2,4.98,0.00,21.9,20.4,00.0,30.8,23.6,13.6,0000.0,0000.90,0000.42,0000.30
2022-12-25 15:31:00,,0826.3,5.01,0.00,21.9,20.4,00.0,30.8,23.6,13.9,0000.0,0000.89,0000.41,0000.29
2022-12-25 15:32:00,,0826.4,5.02,0.00,21.9,20.4,00.0,30.8,23.6,14.0,0000.0,0000.79,0000.39,0000.28
2022-12-25 15:33:00,,0826.3,5.02,0.00,21.9,20.5,00.0,30.8,23.5,13.9,0000.0,0000.73,0000.37,0000.27
2022-12-25 15:34:00,,0826.3,4.98,0.00,21.8,20.4,00.0,30.8,23.5,13.8,0000.0,0000.73,0000.36,0000.25
2022-12-25 15:35:00,,0826.3,4.96,0.00,21.8,20.4,00.0,30.8,23.5,13.7,0000.0,0000.58,0000.34,0000.24
2022-12-25 15:36:00,,0826.3,5.01,0.00,21.8,20.4,00.0,30.8,23.6,13.8,0000.0,0000.53,0000.33,0000.24
2022-12-25 15:37:00,,0826.3,5.02,0.00,21.8,20.5,00.0,30.7,23.6,13.8,0000.0,0000.54,0000.33,0000.23
2022-12-25 15:38:00,,0826.3,5.01,0.00,21.8,20.6,00.0,30.7,23.6,13.8,0000.0,0000.52,0000.32,0000.23
2022-12-25 15:39:00,,0826.3,4.97,0.00,21.8,20.6,00.0,30.7,23.6,13.8,0000.0,0000.53,0000.32,0000.23
2022-12-25 15:40:00,,0826.4,4.97,0.00,21.8,20.6,00.0,30.7,23.6,13.8,0000.0,0000.58,0000.33,0000.23
2022-12-25 15:41:00,,0826.5,5.02,0.00,21.8,20.6,00.0,30.7,23.6,13.9,0000.0,0000.52,0000.30,0000.23
2022-12-25 15:42:00,,0826.5,4.99,0.00,21.8,20.5,00.0,30.7,23.6,13.9,0000.0,0000.50,0000.29,0000.23
2022-12-25 15:43:00,,0826.5,5.01,0.00,21.8,20.5,00.0,30.7,23.7,13.8,0000.0,0000.53,0000.30,0000.23
2022-12-25 15:44:00,,0826.4,4.99,0.00,21.8,20.5,00.0,30.7,23.6,13.8,0000.0,0000.54,0000.31,0000.23
2022-12-25 15:45:00,,0826.5,4.97,0.00,21.8,20.5,00.0,30.7,23.6,14.0,0000.0,0000.53,0000.30,0000.23
2022-12-25 15:46:00,,0826.5,5.01,0.00,21.8,20.4,00.0,30.7,23.6,14.0,0000.0,0000.52,0000.29,0000.23
2022-12-25 15:47:00,,0826.5,5.02,0.00,21.8,20.3,00.0,30.7,23.6,14.0,0000.0,0000.70,0000.29,0000.22
2022-12-25 15:48:00,,0826.5,5.01,0.00,21.8,20.3,00.0,30.7,23.5,14.2,0000.0,0000.71,0000.29,0000.22
2022-12-25 15:49:00,,0826.5,4.98,0.00,21.8,20.3,00.0,30.7,23.6,14.1,0000.0,0000.71,0000.30,0000.23
2022-12-25 15:50:00,,0826.5,4.97,0.00,21.8,20.3,00.0,30.7,23.6,14.5,0000.0,0000.70,0000.30,0000.23
2022-12-25 15:51:00,,0826.5,5.03,0.00,21.8,20.4,00.0,30.7,23.6,14.3,0000.0,0000.64,0000.29,0000.23
2022-12-25 15:52:00,,0826.4,5.02,0.00,21.8,20.5,00.0,30.7,23.6,14.2,0000.0,0000.65,0000.30,0000.23
2022-12-25 15:53:00,,0826.2,4.98,0.00,21.8,20.5,00.0,30.7,23.7,14.1,0000.0,0000.70,0000.32,0000.24
2022-12-25 15:54:00,,0826.2,4.97,0.00,21.8,20.5,00.0,30.7,23.6,14.1,0000.0,0000.74,0000.33,0000.25
2022-12-25 15:55:00,,0826.3,5.03,0.00,21.8,20.4,00.0,30.7,23.6,14.3,0000.0,0000.72,0000.32,0000.25
2022-12-25 15:56:00,,0826.2,5.04,0.00,21.8,20.4,00.0,30.7,23.6,14.5,0000.0,0000.75,0000.33,0000.26
2022-12-25 15:57:00,,0826.2,5.01,0.00,21.8,20.4,00.0,30.7,23.5,14.6,0000.0,0000.81,0000.36,0000.27
2022-12-25 15:58:00,,0826.2,4.97,0.00,21.8,20.4,00.0,30.7,23.5,14.8,0000.0,0000.63,0000.37,0000.27
2022-12-25 15:59:00,,0826.1,4.98,0.00,21.8,20.3,00.0,30.7,23.5,14.8,0000.0,0001.57,0000.39,0000.27
